Location: Calvi dell� Umbria
(42.4000°N, 12.5667°E)
Time: 06:29:07
(UTC+00:00)

Daily predictions for brighter satellites

Satellite Brightness Start Highest point End
(mag) Time Altitude Azimuth Time Altitude Azimuth Time Altitude Azimuth
FREGAT/IRIS 2.2 18:48:30 10° SSE 18:51:07 73° ENE 18:53:45 10° N
Cosmos 2218 Rocket 4.0 18:46:18 10° S 18:52:28 80° E 18:58:38 10° N
Cosmos 405 3.9 18:51:28 10° NNW 18:54:51 51° W 18:58:11 10° S
H-2A R/B 3.0 18:51:01 10° S 18:56:02 50° W 19:00:59 10° NNW
Cosmos 1782 2.8 18:54:24 10° N 18:58:26 77° E 19:02:26 10° SSE
Cosmos 1805 Rocket 4.4 18:55:02 10° SSE 18:58:57 32° E 19:02:54 10° NNE
MOS 1 4.3 18:54:25 10° SSE 19:00:04 85° ENE 19:05:45 10° NNW
Cosmos 1980 Rocket 4.0 18:57:07 10° N 19:00:41 17° NE 19:04:13 10° E
ERBS 4.2 18:57:48 10° WSW 19:00:51 33° NW 19:03:55 10° NNE
DMSP B5D2-2 4.0 19:01:34 10° NNE 19:06:48 75° ESE 19:12:02 10° S
SL-4 R/B 2.5 19:05:01 10° SSW 19:08:44 35° SE 19:12:13 10° ENE
ATLAS 5 CENTAUR R/B 2.6 19:03:51 10° NNW 19:09:33 61° NE 19:15:44 12° SE
SL-08 RB Rocket 4.4 19:07:43 10° S 19:12:14 58° W 19:16:50 10° NNW
MetOp-A 4.2 19:08:36 10° SSE 19:13:58 89° ENE 19:19:21 10° NNW
Cosmos 1833 Rocket 3.0 19:10:08 10° S 19:15:21 42° ESE 19:20:37 10° NE
Cosmos 1697 Rocket 3.5 19:11:55 10° N 19:17:03 35° ENE 19:21:20 14° ESE
Cosmos 2228 Rocket 3.0 19:14:20 10° N 19:18:47 82° E 19:23:11 10° S
SPOT 3 Rocket 3.6 19:15:00 10° SSE 19:20:11 71° ENE 19:25:22 10° N
Cosmos 1633 Rocket 4.4 19:18:04 14° SE 19:20:39 22° E 19:24:04 10° NE
Cosmos 389 Rocket 2.7 19:18:24 10° N 19:21:45 47° ENE 19:24:21 15° SSE
Cosmos 2251 Rocket 4.1 19:17:10 10° SSW 19:22:21 62° WNW 19:27:37 10° NNE
Cosmos 1812 3.1 19:19:58 10° N 19:23:41 45° ENE 19:26:34 15° SSE
Cosmos 1727 Rocket 4.1 19:17:33 10° N 19:23:58 88° E 19:30:19 10° S
Cosmos 1656 3.6 19:23:18 10° NNW 19:28:48 76° ENE 19:33:31 15° SSE
IRIDIUM 104 4.3 19:25:11 10° S 19:30:22 75° E 19:35:35 10° N
Resurs 01 Rocket 1.7 19:27:32 13° SSE 19:31:20 62° ENE 19:35:43 10° N
Cosmos 1707 Rocket 4.1 19:29:03 10° N 19:33:09 39° ENE 19:35:43 20° SE
Cosmos 220 Rocket 4.1 19:29:09 10° NNW 19:33:18 56° ENE 19:36:05 20° SE
Cosmos 972 Rocket 4.1 19:30:12 10° NNW 19:35:11 72° WSW 19:40:02 10° S
FALCON 9 DEB 3.6 19:33:37 10° SSW 19:36:54 39° SE 19:40:11 10° ENE
Cosmos 1441 Rocket 3.0 19:33:16 10° S 19:37:04 76° E 19:40:51 10° NNE
Cosmos 1934 Rocket 4.5 19:31:56 11° SSE 19:37:41 42° E 19:43:38 10° NNE
IRIDIUM 114 4.3 19:34:18 10° S 19:39:30 90° ESE 19:44:45 10° N
Cosmos 614 Rocket 3.9 19:35:38 10° SSW 19:40:47 84° ESE 19:46:01 10° NNE
NOSS 3-2 (A) 4.1 19:37:07 10° SSE 19:41:42 27° ESE 19:46:42 10° NE
IGS 5A 4.2 19:41:07 22° ESE 19:43:03 35° ENE 19:46:49 10° N
SWAS 4.4 19:44:02 10° SSW 19:48:16 62° ESE 19:52:33 10° NNE
USA 267 3.3 19:41:57 10° NE 19:48:31 86° NW 19:55:05 10° SW
Cosmos 1821 Rocket 3.9 19:44:43 10° S 19:50:49 89° ESE 19:57:04 10° N
GP-B 3.8 19:47:33 10° NNE 19:51:39 36° E 19:53:13 27° SE
COSMOS 2406 3.6 19:47:33 10° SSW 19:53:16 68° WNW 19:59:01 10° NNE
Shenzhou-11 Module 1.2 19:53:09 10° W 19:55:30 88° WSW 19:55:30 88° WSW
ERS-1 Rocket 4.0 19:56:08 23° ESE 19:58:07 30° ENE 20:02:28 10° N
SL-16 R/B 4.3 19:56:10 10° N 19:59:22 15° NE 20:02:26 10° ENE
Intercosmos 25 3.4 19:55:16 10° NNW 19:59:31 71° W 20:01:26 24° S
Cosmos 1862 Rocket 4.3 19:55:32 10° N 19:59:42 37° ENE 20:01:01 30° ESE
Lacrosse 5 4.0 19:58:13 10° NNW 20:01:56 20° NNE 20:05:40 10° ENE
Sich 1 3.4 19:58:49 10° SSW 20:03:13 68° W 20:07:39 10° N
Cosmos 2369 3.7 19:59:17 10° NNW 20:05:02 74° ENE 20:08:05 29° SE
Cosmos 2082 Rocket 2.1 20:02:42 10° SSW 20:08:20 68° ESE 20:14:00 10° NNE
BREEZE-M DEB (TANK) 4.2 20:06:47 10° WNW 20:08:44 18° N 20:09:54 12° NNE
Cosmos 1818 3.5 20:04:13 10° NW 20:09:42 84° WSW 20:12:24 31° SSE
Cosmos 1954 Rocket 4.2 20:06:50 22° S 20:10:06 52° ESE 20:15:17 10° NNE
Cosmos 1535 Rocket 4.4 20:08:44 15° S 20:13:57 77° E 20:20:05 10° N
Spot 2 Rocket 3.4 20:11:25 30° SSE 20:13:58 78° ENE 20:19:05 10° N
Cosmos 2278 3.9 20:08:39 10° NNW 20:14:19 59° ENE 20:16:44 33° SE
Cosmos 2123 Rocket 3.9 20:08:17 10° N 20:14:31 75° E 20:18:06 27° SSE
Meteor 2-20 4.4 20:10:06 10° N 20:16:18 88° E 20:20:07 25° S
Cosmos 1184 Rocket 2.8 20:21:02 65° ENE 20:21:02 65° ENE 20:24:07 10° NNE
CARTOSAT-1 4.0 20:20:04 40° ESE 20:20:52 45° ENE 20:25:00 10° N
Cosmos 1190 Rocket 4.2 20:15:53 10° SSW 20:21:08 74° WNW 20:26:28 10° NNE
Cosmos 2322 Rocket 4.1 20:18:11 10° N 20:21:59 18° NE 20:24:25 14° ENE
Terra 2.8 20:21:08 29° E 20:22:03 31° ENE 20:26:13 10° N
Meteor 1-4 Rocket 2.3 20:18:34 10° N 20:22:03 90° ENE 20:22:26 69° S
USA 234 3.4 20:18:45 27° ESE 20:22:33 66° NE 20:29:01 10° NW
Cosmos 407 Rocket 4.2 20:18:53 10° SW 20:24:07 57° WNW 20:29:21 10° NNE
Cosmos 1605 Rocket 3.9 20:21:08 29° SSE 20:24:16 62° E 20:30:17 10° NNE
Cosmos 1933 Rocket 4.0 20:24:16 40° E 20:24:23 40° E 20:28:32 10° NNE
Cosmos 1666 Rocket 4.0 20:21:27 16° SSW 20:24:50 59° W 20:29:07 10° N
Meteor 1-20 Rocket 4.3 20:23:25 31° SSE 20:26:08 63° E 20:31:54 10° NNE
Cosmos 1238 Rocket 3.6 20:28:02 27° NE 20:28:02 27° NE 20:29:39 10° NNE
SL-8 R/B 4.3 20:23:08 10° WNW 20:27:43 44° SW 20:28:49 38° S
Okean 1 4.2 20:27:55 10° N 20:31:27 35° ENE 20:31:27 35° ENE
Meteor 1-27 Rocket 4.4 20:27:07 10° NNW 20:32:53 55° W 20:36:53 20° SSW
Cosmos 2360 Rocket 4.4 20:33:15 10° NNE 20:35:55 13° NE 20:38:34 10° ENE
Cosmos 1437 Rocket 4.3 20:32:56 10° NNE 20:35:27 23° NE 20:35:27 23° NE
SPOT 5 2.7 20:35:54 52° E 20:36:21 55° ENE 20:40:36 10° N
USA 238 DEB 3.5 20:30:38 10° SSW 20:37:10 69° ESE 20:43:58 10° NE
USA 238 3.5 20:30:46 10° SSW 20:37:16 68° ESE 20:44:03 10° NE
BREEZE-M DEB (TANK) 4.1 20:37:14 10° W 20:38:54 13° WSW 20:39:00 13° WSW
Meteor 1-19 Rocket 4.5 20:36:05 10° N 20:41:19 46° ENE 20:42:13 42° ESE
SPOT 1/Viking Rocket 3.6 20:39:53 39° S 20:41:51 73° WSW 20:47:06 10° NNW
Cosmos 1980 Rocket 2.1 20:39:47 10° NNW 20:45:30 88° WSW 20:47:05 50° SSE
Cosmos 1703 Rocket 4.2 20:43:15 10° N 20:47:05 41° ENE 20:47:05 41° ENE
Cosmos 2242 Rocket 3.6 20:43:03 10° N 20:47:27 58° E 20:47:29 58° E
Meteor 1-14 Rocket 4.4 20:46:52 48° SE 20:47:54 54° E 20:53:39 10° NNE
SL-4 R/B 3.0 20:44:33 10° W 20:48:18 42° NNW 20:51:35 11° NE
Cosmos 405 Rocket 3.1 20:49:22 52° NNE 20:49:22 52° NNE 20:52:17 10° NNE
BREEZE-M DEB (TANK) 4.2 20:47:05 10° WNW 20:50:09 38° N 20:58:29 10° ENE
Cosmos 1763 Rocket 4.2 20:45:22 10° N 20:50:23 40° ENE 20:51:08 38° E
Genesis I 3.2 20:47:08 10° NNW 20:50:44 73° N 20:50:44 73° N
ATLAS 5 CENTAUR R/B 3.9 20:49:03 10° WNW 20:54:05 27° WSW 20:57:17 19° SSW
USA 32 4.4 20:53:02 31° SSW 20:55:26 62° W 21:00:38 10° N
Cosmos 1459 Rocket 4.4 20:58:06 42° ESE 20:58:40 43° E 21:04:34 10° NNE
Cosmos 1697 Rocket 3.8 20:55:56 10° NW 21:00:58 35° WSW 21:03:04 26° SW
Cosmos 1153 Rocket 4.3 21:03:26 50° S 21:05:08 83° E 21:11:19 10° N
CENTAUR R/B 2.4 21:04:46 56° SSE 21:05:39 63° ESE 21:12:23 10° NE
Cosmos 1867 4.3 21:00:33 10° SW 21:05:51 54° NW 21:11:13 10° NNE
Resurs 01 Rocket 4.3 21:06:20 10° WSW 21:08:13 12° W 21:10:07 10° WNW
Meteor 1-18 Rocket 4.1 21:03:22 10° N 21:08:59 90° WNW 21:09:50 66° S
Okean 1-7 3.4 21:04:48 10° N 21:08:30 56° NE 21:08:30 56° NE
Cosmos 1802 Rocket 4.4 21:13:52 46° E 21:14:12 46° E 21:20:15 10° NNE
Cosmos 1850 Rocket 3.9 21:14:18 76° ESE 21:14:23 77° ESE 21:19:40 10° NNE
Meteor 2-4 Rocket 3.8 21:13:04 10° N 21:18:42 60° ENE 21:18:53 59° E
ATLAS 5 CENTAUR R/B 3.7 21:20:05 10° NNW 21:22:57 29° NE 21:23:25 29° ENE
NOSS 3-2 (A) 4.1 21:26:29 10° SW 21:32:02 53° NW 21:38:23 10° NNE
Cosmos 921 Rocket 4.2 21:31:35 10° NNW 21:34:50 34° W 21:34:50 34° W
ERS-1 Rocket 4.2 21:36:09 31° WSW 21:36:49 32° W 21:41:19 10° NNW
NOSS 3-2 (C) 3.4 21:35:51 44° SW 21:37:47 74° NW 21:44:14 10° NNE
Cosmos 841 Rocket 3.8 21:37:16 10° NNW 21:42:00 57° NE 21:42:00 57° NE
Cosmos 540 Rocket 3.9 21:38:46 10° NNW 21:43:22 55° NE 21:43:22 55° NE
SL-16 R/B 2.1 21:38:41 10° NNW 21:44:17 82° NE 21:44:17 82° NE
Lacrosse 5 2.3 21:40:48 10° NW 21:45:31 58° NNE 21:45:31 58° NNE
Cosmos 468 Rocket 4.3 21:40:47 10° NNW 21:45:45 58° W 21:45:45 58° W
Cosmos 1741 Rocket 4.4 21:48:23 54° W 21:48:53 56° WNW 21:54:05 10° NNE
Cosmos 1570 Rocket 4.2 21:48:24 10° NNW 21:53:10 68° NNE 21:53:10 68° NNE
Tsikada Rocket 4.3 21:48:41 10° N 21:54:54 53° ENE 21:54:55 53° ENE
Cosmos 2219 Rocket 4.1 21:51:12 10° N 21:55:14 19° NE 21:56:38 18° ENE
Cosmos 2208 Rocket 4.3 21:50:36 10° NNW 21:55:10 59° NNE 21:55:10 59° NNE
Cosmos 1814 Rocket 4.4 21:51:03 10° NNW 21:55:32 57° NNE 21:55:32 57° NNE
Terra 3.3 22:00:02 29° W 22:00:02 29° W 22:03:53 10° NW
USA 234 4.0 22:06:06 37° WSW 22:06:06 37° WSW 22:11:46 10° WNW
Cosmos 2100 Rocket 4.4 22:05:35 48° WSW 22:06:32 53° WNW 22:12:33 10° N
Cosmos 2322 Rocket 2.3 22:01:02 10° NNW 22:06:13 73° NW 22:06:13 73° NW
Meteor 1-11 Rocket 3.8 22:09:09 72° N 22:09:09 72° N 22:14:17 10° N
ATLAS 3B R/B 2.5 22:21:12 75° ENE 22:21:12 75° ENE 22:27:21 10° NE
Cosmos 2360 Rocket 2.5 22:15:18 10° NNW 22:20:19 64° NNE 22:20:19 64° NNE
COSMOS 2428 4.2 22:17:04 10° N 22:21:51 26° NE 22:22:37 26° ENE
ALOS 2 4.1 22:27:44 35° N 22:27:44 35° N 22:30:22 10° N
Cosmos 1725 Rocket 4.0 22:27:20 72° W 22:27:20 72° W 22:33:40 10° N
Cosmos 2333 Rocket 3.0 22:35:59 10° NNW 22:41:19 43° NE 22:41:19 43° NE
Lacrosse 4 Rocket 3.7 22:45:24 20° NNE 22:45:24 20° NNE 22:46:45 10° NNE
Cosmos 2237 Rocket 4.4 22:41:40 10° N 22:45:19 17° NE 22:47:32 14° ENE
CENTAUR R/B 4.2 22:51:50 12° W 22:56:52 31° NW 23:03:10 10° NNE
Cosmos 968 Rocket 4.5 22:59:01 42° NNE 22:59:01 42° NNE 23:02:23 10° NNE
Cosmos 1464 Rocket 4.2 23:15:36 62° ENE 23:15:36 62° ENE 23:21:06 10° NNE
Cosmos 2227 Rocket 4.1 23:22:42 19° E 23:22:42 19° E 23:25:22 10° NE
Lacrosse 5 4.4 23:24:21 10° WNW 23:24:41 11° WNW 23:24:41 11° WNW
Nadezhda 4 Rocket 4.2 23:32:04 10° N 23:38:04 65° ENE 23:38:04 65° ENE
Cosmos 2219 Rocket 2.8 23:34:07 10° NNW 23:38:19 50° NW 23:38:19 50° NW
Cosmos 2034 Rocket 4.0 23:43:53 74° NE 23:43:53 74° NE 23:49:43 10° N
SL-16 R/B 4.0 23:46:16 24° E 23:48:31 31° ENE 23:53:51 10° N
Cosmos 1092 Rocket 4.4 23:46:27 10° N 23:52:32 52° ENE 23:52:45 52° E
CZ-2D R/B 3.7 23:50:44 10° NE 23:54:54 25° E 23:54:54 25° E
SL-16 R/B 4.3 23:51:16 10° N 23:55:38 22° NE 23:59:41 11° E
